STARLINK-32784, 62607

Orbit data source: Space-Track

STARLINK-32784, 62607 is a payload satellite owned by SpaceX/Seattle (US) in LEO that was launched on Mon, 13 Jan 2025 UTC via an FALCON 9 launch vehicle from the Air Force Eastern Test Range (AFETR). Payload-class satellites include a variety of spacecraft equipped with specific instruments for various scientific and technological missions. These include communications satellites like Starlink; space stations such as the ISS; scientific satellites like the Hubble; Earth observation satellites from companies like Planet Labs, Umbra, and HawkEye 360; GPS; miniature CubeSats for education and research; and military/defense satellites.

Loading next visibility...
Identifier
62607, 2025-008W
Orbit
LEO
Last TLE update
14 hours ago
Origin
Manufacturer
SpaceX/Seattle
Mission
Operational Commercial Communications
Bus & Motor
STARLINK V2M, Unknown motor
Mass
730 kg wet, ~700 kg dry
Launch date (UTC)
2025-01-13 (6 months ago)
Launch vehicle
FALCON 9
Launch site
Air Force Eastern Test Range (AFETR)
Object type
Payload
Rocket body
Debris
Shape & HBR
Box + 2 Pan, 29 m
Radar Cross Section
33.884 m², Large (>1 m²)

Expand to show TLE details & history

TLE from 14 hours ago
0 STARLINK-32784
1 62607U 25008W   25186.18208486  .00011908  00000-0  44139-3 0  9998
2 62607  43.0016 235.5108 0001413 273.9085  86.1605 15.27592752 27778
Epoch: 2025-07-05T04:22Z
TLE epoch observation values (Epoch: 2025-07-05T04:22:12.131Z)
Latitude
-0.00004°
Longitude
-113.4636°
Altitude
482.722 km
Speed
7.626 km/s
True Right ascension
15h 42m 02s
True Declination
0° 00' 00"
Sunlit
Object was in full shadow at epoch
Visualization orbit readout
Latitude
-15.61845°
Longitude
-134.10885°
Altitude
485.56 km
Speed
7.624 km/s
Apparent Right ascension
15h 59m 39s
Apparent Declination
-30° 32' 55"
Sunlit
Object is in full shadow
Visualization observer readout
Local Sidereal Time
06:19:04
Azimuth
82.632° E
Elevation
-60.248°
Doppler factor
1
Orbital elements
Apogee altitude
485.926 km
Perigee altitude
483.986 km
Semi-major axis
6,863.093 km
Eccentricity
0.00014
Inclination
43.0016°
RAAN
235.5108°
Arg. of periapsis
273.9085°
True anomaly
Unknown
Mean anomaly
86.1605°
Eccentric anomaly
Unknown
Mean motion
3.81736 °/min
Orbital period
94.31 mins
BSTAR
0.00044139
Loading maneuver chart data...
Loading SW <> Apogee altitude chart data...
Loading historical data...
Loading historical data...
Loading historical data...
Loading historical data...
Loading historical data...
Loading historical data...
Loading historical data...

STARLINK-32784 Visibility forecast

Observer location: undefined°, undefined°

Span
Click to sort rows by Start time (UTC) header in descending order
Start Az.
Max El. time (UTC)
Max El. Az.
Max El.
End time (UTC)
End Az.
5 mins2025-07-06 05:39:32.972Z186.638° SSW2025-07-06 05:41:32.972Z152.781° SSE17.527°2025-07-06 05:44:32.972Z99.06° ESE
5 mins2025-07-06 07:18:32.972Z242.904° WSW2025-07-06 07:20:32.972Z152.509° SSE44.48°2025-07-06 07:23:32.972Z73.71° E
5 mins2025-07-06 08:57:32.972Z288.548° WNW2025-07-06 08:59:32.972Z352.133° N38.268°2025-07-06 09:02:32.972Z71.478° E
5 mins2025-07-06 10:36:32.972Z292.564° NW2025-07-06 10:38:32.972Z336.273° NNW43.094°2025-07-06 10:41:32.972Z98.557° ESE
5 mins2025-07-06 12:15:32.972Z262.014° W2025-07-06 12:17:32.972Z212.369° SW27.685°2025-07-06 12:20:32.972Z150.245° SSE
|